GEFSMW_500_meanwind_258.txt.gz
Wind_Speed
32 32 33 34 34 34 34 35 36 37 37 37 37 37 37 38 38 38 38 39 39 38 37 37 36 36 37 38 39 39 38 38 38 38 38 38 37 37 37 36 35 35 34
31 31 32 32 33 34 34 34 35 36 36 37 36 37 38 38 38 38 37 37 37 37 36 36 36 36 36 38 39 39 39 40 39 38 39 39 38 36 36 35 36 36 36
30 31 32 32 31 32 33 34 34 35 36 36 36 35 36 36 37 38 37 37 37 37 36 35 35 35 35 36 39 39 40 39 39 38 38 39 38 37 36 36 35 36 37
29 29 30 31 31 32 33 34 34 35 35 35 35 34 34 35 35 36 37 37 37 37 37 37 37 36 36 37 38 38 40 40 40 40 39 38 38 38 37 37 36 36 37
27 28 29 30 30 31 31 32 32 34 34 35 34 33 33 34 34 36 37 38 39 39 38 38 36 36 36 36 37 37 38 39 40 40 39 39 39 38 38 38 37 38 38
25 27 28 28 29 30 30 31 32 32 32 34 35 34 34 34 34 36 37 38 38 39 39 38 37 36 35 36 37 37 37 38 40 40 40 41 41 40 40 39 39 40 40
25 25 26 27 28 29 29 29 31 31 32 32 33 33 32 32 34 35 36 37 37 38 39 39 38 37 36 37 38 38 38 39 39 40 41 42 42 42 41 40 40 40 40
25 25 27 28 28 28 28 29 29 29 30 31 31 32 32 32 33 34 34 36 36 37 39 39 39 38 37 37 39 39 39 40 40 41 42 42 43 43 42 41 40 40 41
26 26 27 27 27 28 29 28 28 29 29 29 29 31 31 32 32 31 33 34 35 36 38 39 38 39 38 37 38 39 40 40 41 41 41 41 42 42 42 42 41 40 40
26 26 26 27 26 27 28 27 28 27 27 27 28 29 30 30 30 30 31 32 33 34 35 37 38 38 38 37 37 39 39 39 40 41 40 40 40 40 40 40 41 40 39
23 25 25 26 26 26 26 26 26 26 27 27 28 29 29 31 31 30 31 31 31 32 33 34 35 36 36 35 36 37 37 38 39 39 39 40 39 39 39 40 40 40 38
23 24 24 24 24 25 25 25 25 24 26 27 29 29 30 31 32 32 30 30 31 31 31 32 33 34 34 35 35 35 36 38 38 38 38 38 39 39 39 39 38 38 39
23 24 24 24 24 25 26 25 24 24 25 26 27 28 29 30 30 31 31 31 30 30 30 30 31 32 33 34 34 35 35 35 36 36 36 36 37 37 38 38 38 38 37
22 22 23 24 25 26 26 25 25 25 25 25 26 27 28 28 27 29 30 30 30 29 29 29 29 31 33 33 34 34 33 33 33 33 34 33 34 34 36 37 37 37 36
22 23 24 24 24 24 25 24 24 25 24 25 26 27 27 27 27 28 29 29 29 30 30 30 30 31 31 31 32 32 32 32 32 32 32 34 33 33 35 36 36 36 36
22 23 24 23 23 23 24 24 25 25 26 26 26 26 25 25 25 26 27 28 28 29 29 30 30 29 29 30 30 31 31 31 32 32 32 32 34 34 34 34 34 35 35
24 24 24 24 23 23 24 24 24 25 26 26 26 25 25 25 25 25 26 28 28 28 28 28 29 29 29 29 30 29 30 30 31 31 32 33 34 33 33 34 34 34 34
23 24 25 25 24 24 24 24 23 24 25 25 25 25 25 26 26 26 26 26 27 27 27 28 29 29 29 30 30 30 30 30 30 30 31 32 32 32 32 33 34 34 34
23 23 24 24 24 24 23 23 23 22 22 23 24 25 25 26 26 26 26 27 28 28 28 28 29 30 30 30 30 30 30 31 31 30 31 31 31 32 32 33 33 33 34
23 22 23 24 23 23 23 23 23 23 23 23 24 24 24 25 25 25 25 26 27 27 28 28 29 30 30 30 30 30 30 31 31 31 31 31 31 32 33 33 33 32 32
24 23 24 24 23 22 23 23 23 24 24 24 24 24 25 25 25 26 26 26 26 27 27 28 29 29 29 30 30 31 31 31 32 32 32 31 32 32 33 33 32 32 32
24 24 25 25 24 24 24 24 24 24 25 26 26 26 26 26 26 26 26 27 27 27 28 28 28 29 30 30 31 32 32 32 32 33 33 32 32 32 33 32 32 31 32
24 25 25 26 26 26 27 26 25 25 25 26 26 27 27 28 27 27 27 28 28 28 29 29 30 30 30 31 31 31 31 32 32 33 33 32 32 32 33 33 32 32 31
25 25 26 26 26 27 27 27 26 26 26 26 27 27 28 29 29 28 28 28 28 28 29 29 29 29 30 30 30 30 31 31 32 33 33 33 33 33 33 33 32 32 31
25 26 26 26 26 27 27 28 28 28 28 28 28 29 29 30 30 29 29 29 29 30 30 30 30 30 29 29 30 30 31 31 31 31 32 32 33 33 33 33 32 32 33
26 26 26 25 26 26 27 28 29 28 28 28 29 29 29 30 29 29 29 30 30 29 30 30 30 30 30 29 29 30 30 30 31 31 31 31 32 32 31 31 32 32 32

GEFSMW_500_meanwind_264.txt.gz
Wind_Speed
28 30 31 31 33 34 35 35 36 38 39 40 40 40 40 40 40 41 40 40 39 39 40 40 39 39 39 39 38 38 38 37 37 38 39 40 39 38 36 36 36 36 35
27 29 30 31 32 33 35 36 37 38 38 38 38 40 40 39 39 40 41 40 40 39 39 39 39 39 39 39 39 38 38 38 38 38 39 40 40 40 39 38 36 36 36
26 28 30 31 31 31 33 34 36 37 38 39 39 40 39 39 40 39 40 41 40 39 39 39 39 39 39 39 39 38 38 39 39 39 39 40 41 40 39 38 37 38 38
25 27 28 29 30 30 32 33 34 34 35 36 37 38 37 38 39 39 38 39 40 40 39 38 39 39 39 39 39 39 39 39 39 39 39 39 40 41 40 39 38 38 38
24 25 27 28 29 30 32 32 33 33 33 34 35 34 35 36 37 38 37 37 37 38 38 38 39 39 39 38 38 38 39 39 38 38 38 39 38 39 41 40 39 38 37
23 24 25 27 28 29 30 31 31 32 33 33 34 33 34 34 34 35 35 36 35 35 36 36 37 37 37 37 37 37 38 37 37 37 37 36 36 37 38 38 38 38 37
22 23 24 25 26 28 28 29 31 31 31 32 33 32 32 33 34 34 35 35 34 34 34 34 35 36 36 37 37 38 38 37 36 36 36 35 35 36 37 37 37 37 36
22 23 24 25 25 26 27 28 29 30 31 32 32 32 32 33 33 34 35 35 34 34 33 33 35 37 37 37 37 37 36 36 36 36 36 35 35 36 37 37 37 37 37
22 22 24 24 25 26 27 28 28 29 29 30 30 31 31 32 33 33 34 35 35 34 34 34 35 36 37 37 37 37 36 35 35 36 36 36 35 36 37 37 37 38 38
20 21 22 22 23 24 25 26 27 28 29 30 30 29 30 31 32 33 34 34 34 34 35 34 35 36 37 37 37 38 37 36 35 35 35 35 34 36 37 37 38 39 38
20 21 21 22 23 23 25 26 27 28 29 29 29 28 29 30 31 32 32 33 33 34 33 34 34 35 36 36 35 36 36 35 35 35 35 35 36 36 36 35 36 37 37
21 21 22 22 23 23 24 25 26 27 28 28 28 28 27 28 30 31 31 32 33 33 33 33 33 34 35 35 35 34 35 35 35 35 35 35 35 35 36 36 36 36 37
21 21 22 22 22 22 23 24 25 26 26 27 27 28 28 27 29 30 30 31 32 32 32 32 32 34 35 34 34 34 35 35 35 35 35 35 35 35 36 35 35 35 36
20 20 21 21 21 21 22 23 24 25 26 26 26 26 26 27 29 29 31 31 31 32 32 32 33 33 34 34 34 34 35 35 36 36 36 35 36 36 35 35 35 35 36
20 20 20 21 21 22 22 22 22 23 24 25 26 26 26 27 28 29 29 29 30 30 30 30 31 32 32 32 33 33 34 35 36 37 37 36 35 35 35 35 36 36 37
21 21 21 22 21 21 21 21 22 23 24 24 25 25 26 27 27 28 28 29 29 28 28 29 29 30 31 31 31 32 33 34 35 35 35 35 35 34 35 35 36 36 35
21 21 21 21 21 21 21 21 21 22 24 25 25 25 25 27 27 28 28 28 28 28 29 28 29 29 30 30 31 32 32 32 32 33 33 33 33 33 34 34 35 34 32
21 21 20 20 21 21 21 21 22 23 25 26 27 27 27 27 27 27 27 27 28 28 28 28 29 30 30 30 30 30 30 30 30 31 32 33 32 33 34 34 34 32 31
21 21 21 21 22 22 22 22 24 25 25 26 27 28 27 27 27 27 27 28 29 29 28 29 29 30 30 30 29 29 29 29 29 29 30 31 32 32 33 32 32 31 30
22 22 21 22 22 22 23 23 24 25 26 27 27 27 27 27 27 27 27 28 28 29 29 28 29 30 31 29 29 29 29 29 28 29 29 30 30 31 31 30 31 31 31
22 22 22 22 22 22 22 23 23 25 26 26 25 26 25 25 26 26 26 27 27 27 28 28 27 28 28 29 29 28 28 29 29 29 29 30 30 30 30 29 30 30 30
23 22 22 22 23 23 23 23 23 23 24 24 24 24 24 23 24 25 25 26 26 26 27 27 27 27 27 27 27 27 27 27 28 28 29 29 29 29 29 30 30 29 29
23 23 23 23 23 23 23 23 23 23 23 24 24 24 24 23 23 23 23 23 23 23 24 24 24 25 25 25 25 25 25 25 26 27 28 28 28 28 29 29 29 28 29
23 23 23 23 23 23 23 23 23 24 24 24 24 24 24 23 23 23 23 23 23 23 24 24 24 25 25 25 25 25 25 26 26 27 27 27 27 28 28 28 28 28 29
23 23 24 23 23 23 23 23 23 24 24 24 23 23 23 23 23 23 23 23 23 24 24 24 24 24 24 25 25 25 25 25 25 25 26 26 26 26 26 26 27 28 29
23 23 24 24 24 24 24 24 24 24 24 24 24 24 23 23 23 24 23 23 23 24 24 24 24 24 24 25 25 25 25 25 25 25 25 26 26 25 26 26 27 27 28

GEFSMW_500_meanwind_270.txt.gz
Wind_Speed
32 33 34 33 33 33 35 36 37 38 39 40 41 41 41 41 41 40 40 42 42 41 41 40 40 40 40 40 40 39 39 40 40 40 39 39 38 38 38 38 37 38 39
31 32 33 33 34 34 35 36 36 37 38 39 40 41 41 41 40 40 40 40 40 40 42 42 40 40 41 41 40 40 40 40 40 40 39 38 37 37 37 37 37 38 38
30 30 31 32 34 35 35 35 36 36 37 38 39 40 40 40 40 40 39 38 38 40 40 42 40 40 40 40 40 40 40 39 40 39 38 38 37 37 36 37 36 37 37
29 30 30 31 32 33 34 34 34 35 36 37 38 38 38 38 39 39 39 38 37 39 40 40 40 38 38 38 38 39 39 39 39 39 38 38 38 38 37 36 36 37 38
27 28 29 29 29 31 32 32 32 33 34 35 36 36 37 37 37 38 38 39 38 38 38 38 38 37 36 37 37 37 37 37 38 39 39 38 38 37 37 36 37 37 37
26 27 27 27 28 29 29 30 32 32 34 34 34 36 36 35 36 37 38 39 38 38 37 37 38 36 36 36 36 36 36 36 37 38 38 37 38 37 37 37 37 38 37
26 26 26 26 27 27 28 29 30 31 33 33 33 34 34 34 35 36 38 39 37 37 37 37 37 37 36 35 35 35 35 36 36 37 37 37 37 37 37 36 36 37 36
25 24 23 24 25 26 27 29 29 30 31 31 32 32 32 33 34 35 37 37 37 36 37 38 37 37 36 35 35 35 36 36 36 36 36 37 38 38 37 37 36 36 35
25 25 23 24 25 26 27 27 28 29 30 31 31 32 33 34 35 35 35 35 35 35 35 36 36 36 37 37 37 36 36 36 36 35 36 37 37 37 37 36 37 36 35
25 25 24 24 24 26 26 27 27 28 28 30 32 33 33 34 35 34 34 34 34 34 35 35 35 36 36 37 36 36 36 36 35 35 35 36 36 37 36 36 37 36 35
24 24 25 25 25 26 27 27 27 28 29 30 31 31 32 33 33 33 33 34 34 34 34 35 34 35 35 35 35 36 36 36 35 35 35 35 35 36 37 36 36 36 35
25 24 25 25 26 26 27 27 28 28 28 29 29 30 31 32 32 32 32 33 34 34 35 35 35 35 35 36 36 36 36 36 36 35 35 35 36 36 36 35 35 34 34
25 25 25 26 25 26 26 26 26 26 26 27 28 29 29 30 31 31 32 33 33 33 34 35 35 35 35 35 35 34 35 36 36 35 35 36 36 37 36 35 34 35 35
26 25 24 25 25 25 25 24 25 25 25 25 26 27 28 29 30 30 31 31 32 32 33 34 34 34 34 34 34 34 34 34 35 35 35 36 36 36 36 35 34 35 34
25 24 23 23 24 24 23 23 24 24 24 24 25 26 26 27 28 28 29 30 30 31 32 33 32 32 33 34 33 33 33 33 34 35 35 35 35 34 34 35 34 34 33
25 24 22 22 23 23 23 24 23 23 24 24 24 25 25 27 28 28 28 30 30 31 32 32 31 32 33 34 33 33 32 32 33 34 34 34 34 34 34 34 34 33 33
25 24 23 23 23 24 24 24 24 24 24 25 25 26 26 27 28 28 29 30 31 31 32 31 31 32 31 32 32 32 31 31 31 32 33 33 33 33 33 33 32 31 32
25 25 24 23 24 25 25 25 25 24 24 25 25 26 26 27 27 27 28 29 30 30 30 29 30 31 31 31 30 30 30 30 31 32 32 32 32 32 32 31 31 31 30
26 25 24 24 24 24 23 24 24 24 23 24 25 25 26 27 27 27 28 28 28 28 29 30 29 29 29 29 28 28 28 29 29 28 29 31 31 31 30 31 31 31 30
25 24 23 24 24 24 24 24 24 23 23 24 24 25 25 27 27 27 27 27 27 28 29 28 27 26 26 26 26 26 26 27 26 26 27 28 29 30 30 29 29 29 29
24 23 23 23 24 24 24 24 23 22 22 23 23 24 25 27 27 27 27 27 27 28 27 26 25 24 24 24 24 24 25 25 25 25 25 26 27 27 27 27 28 28 28
23 23 23 23 23 24 24 23 23 22 22 23 24 24 25 27 26 27 26 26 25 25 24 23 23 23 23 23 23 24 24 24 25 25 25 26 26 26 26 26 27 28 28
22 22 23 23 23 24 24 23 23 23 23 23 24 25 26 25 25 24 25 24 24 23 22 22 21 21 21 22 22 23 24 24 25 25 26 26 26 26 26 25 26 26 26
22 22 22 23 23 24 23 23 22 22 22 23 23 24 24 24 23 23 23 23 23 22 21 20 20 20 21 21 22 23 24 24 25 26 27 26 26 27 26 25 24 24 24
23 22 22 22 23 22 22 23 22 22 22 22 22 22 23 23 23 23 23 22 21 21 21 21 21 21 21 22 23 23 24 24 25 25 26 25 26 26 26 25 25 24 24
24 23 23 23 23 23 23 23 23 23 23 22 22 22 22 22 23 22 21 21 21 21 21 22 22 22 22 23 24 24 24 24 25 25 25 25 24 24 24 24 24 23 23

GEFSMW_500_meanwind_276.txt.gz
Wind_Speed
32 32 33 34 34 35 36 36 36 36 37 38 38 39 39 40 39 39 39 40 41 42 41 40 39 38 40 41 41 41 40 40 40 40 39 39 39 39 39 39 40 39 40
32 33 33 34 35 35 36 37 37 37 38 39 39 40 40 40 40 40 40 41 41 41 40 40 39 39 39 39 40 40 39 39 40 40 40 39 39 39 40 40 40 41 41
32 32 33 33 33 33 34 36 36 37 38 39 40 41 40 40 40 40 40 40 41 40 40 40 40 40 40 39 39 39 39 39 40 41 41 40 40 40 39 40 41 41 41
31 32 32 33 33 33 34 35 35 37 38 39 40 40 40 40 40 40 40 41 41 41 41 40 40 40 41 40 39 40 40 39 39 40 40 40 40 40 39 39 40 41 41
30 31 32 32 32 33 34 34 35 36 37 37 38 38 39 39 39 41 41 42 42 41 41 40 39 39 40 40 39 39 38 38 38 38 38 38 38 39 39 38 38 39 39
29 30 31 31 31 32 32 32 33 34 34 35 35 35 37 38 38 40 41 41 41 40 40 39 39 39 39 40 39 37 37 37 37 37 37 37 37 37 38 38 38 39 39
28 29 30 30 31 31 30 31 31 31 31 32 32 33 36 37 38 38 39 40 40 39 39 40 40 40 40 39 39 37 37 36 36 36 36 37 37 37 37 38 38 38 38
26 27 27 28 29 29 29 30 30 29 29 29 30 32 34 36 37 37 37 38 39 39 40 40 40 39 39 39 38 37 37 36 35 35 36 36 36 37 37 37 37 36 36
25 26 26 27 27 25 26 27 28 27 27 28 29 30 32 34 35 35 36 37 37 38 40 41 40 40 39 38 37 38 37 36 35 34 35 36 37 36 36 36 37 37 35
24 25 25 26 25 24 24 25 26 26 26 26 27 27 30 31 32 33 35 36 37 37 38 39 39 38 37 37 37 36 36 35 35 34 35 36 37 37 36 37 37 37 35
24 25 26 26 25 24 23 24 24 24 25 25 26 28 29 30 31 31 32 33 33 35 36 37 37 37 37 37 37 36 36 36 35 35 35 36 36 35 36 36 35 35 35
25 26 26 26 24 23 23 23 22 23 24 25 26 26 27 27 28 29 31 31 31 32 34 34 35 36 36 36 36 36 37 37 36 35 34 35 35 34 34 34 34 34 34
25 25 25 25 24 23 23 22 21 22 23 24 24 24 24 25 26 27 29 30 31 32 33 33 34 35 35 35 36 36 36 36 36 34 34 34 34 33 33 33 33 33 34
24 24 24 23 22 22 22 22 23 22 23 23 23 24 24 25 26 26 28 30 31 31 32 32 33 34 35 35 35 35 35 36 35 34 33 33 34 33 33 32 32 32 32
24 24 23 22 22 22 23 24 24 24 24 24 23 24 25 25 26 27 28 29 30 30 31 32 33 33 34 34 35 35 34 34 35 34 33 32 32 32 31 31 31 32 31
23 23 23 22 23 23 23 23 24 24 25 25 24 24 24 25 26 27 28 29 29 30 32 32 32 32 33 33 33 34 34 33 34 33 32 31 30 30 31 31 31 31 32
24 24 23 23 23 24 23 24 24 25 25 25 25 25 25 26 27 28 28 29 30 31 31 31 32 32 33 33 33 33 33 33 33 32 31 31 30 29 30 30 31 31 32
24 25 24 23 24 24 24 24 25 25 25 26 26 26 26 26 27 28 29 30 31 31 31 31 32 32 32 31 32 32 31 31 31 30 30 30 30 30 29 30 30 30 31
24 24 24 24 24 24 24 24 24 25 25 26 26 25 25 26 26 27 28 29 30 31 31 31 31 30 29 29 29 29 29 29 29 29 29 29 29 28 28 29 29 29 29
23 23 23 24 24 24 24 24 24 24 24 24 24 25 26 27 27 28 28 28 28 28 28 27 26 25 25 25 26 26 26 26 26 26 26 27 28 27 27 28 28 28 28
22 22 23 24 24 24 23 23 23 23 23 23 23 24 25 26 27 27 27 27 26 26 25 25 24 24 24 24 24 24 24 25 25 24 24 25 26 27 28 28 28 27 27
22 22 23 23 23 23 22 21 21 22 22 22 22 23 24 25 25 25 25 25 25 24 25 24 24 24 24 23 23 23 23 25 25 25 25 25 26 26 26 27 27 27 27
23 23 23 22 21 21 21 20 20 21 21 21 22 23 24 24 24 24 24 24 24 23 23 23 23 22 22 22 22 22 23 24 25 25 25 25 26 26 26 26 26 26 25
23 23 23 22 21 21 21 20 20 21 21 21 22 22 22 23 23 24 23 23 22 22 21 21 21 21 21 21 22 22 23 23 24 24 25 25 26 26 26 25 25 24 24
22 22 22 22 22 21 21 21 20 19 19 20 20 20 21 21 21 22 22 21 21 20 20 19 20 20 21 22 23 22 22 23 24 24 24 24 25 25 25 24 23 23 23
22 22 23 22 22 22 21 20 19 19 18 19 19 20 19 19 19 19 20 20 19 19 19 19 19 19 19 20 20 21 20 21 21 21 21 22 22 22 22 21 22 22 22

GEFSMW_500_meanwind_282.txt.gz
Wind_Speed
36 36 36 36 36 36 37 37 38 39 40 41 41 40 40 40 40 41 42 42 41 41 43 43 42 40 40 40 40 40 41 41 42 42 42 41 41 40 41 40 40 40 40
34 35 35 36 36 36 37 38 39 39 40 40 41 41 40 40 39 40 40 41 42 42 42 41 41 41 41 41 41 41 41 41 41 41 41 40 40 40 41 41 40 40 39
34 34 35 36 36 37 37 38 39 38 38 38 39 40 39 39 38 38 40 40 41 41 41 40 41 41 41 41 41 40 41 40 41 41 42 41 40 39 40 41 40 39 39
33 34 34 35 37 37 37 37 38 37 38 38 38 38 37 38 38 38 39 39 40 40 40 40 41 41 41 40 41 41 41 39 40 41 41 41 40 40 40 40 39 38 38
33 33 34 34 35 36 36 36 36 36 36 36 36 37 37 37 37 37 37 38 38 38 40 40 40 41 41 41 40 40 40 40 40 40 40 40 40 40 40 39 39 39 39
32 33 33 33 33 34 34 34 34 33 34 35 35 36 37 36 36 36 37 37 38 39 40 40 40 40 42 42 40 41 40 40 40 39 39 39 39 39 39 39 39 39 39
30 31 32 32 32 33 33 33 33 32 33 33 34 35 35 35 36 36 36 37 39 40 40 40 39 39 40 41 41 41 40 40 40 39 39 39 38 38 39 39 38 39 39
28 29 30 30 30 31 32 32 32 32 32 32 32 33 34 34 35 36 36 37 38 39 39 40 40 39 40 40 40 41 41 40 39 39 39 38 38 37 37 38 38 38 39
26 27 28 28 29 29 30 31 31 31 30 31 30 31 32 33 35 36 35 36 37 36 37 38 38 39 40 39 39 39 40 40 39 38 38 37 37 37 37 37 38 38 38
25 26 26 27 28 28 29 29 29 29 28 29 30 30 31 33 35 35 35 35 35 35 36 37 38 38 38 38 38 37 37 37 37 37 37 37 36 36 36 37 37 38 38
25 26 26 26 26 27 28 29 28 28 28 29 29 30 31 32 33 34 34 34 34 34 34 35 36 36 36 36 36 36 35 36 37 37 36 36 35 35 34 35 35 36 37
25 25 26 26 26 27 27 28 29 29 29 30 30 30 31 31 32 33 33 32 33 33 33 35 35 35 35 35 36 36 35 35 36 37 36 36 36 35 34 34 34 35 35
25 25 26 26 26 26 27 28 29 29 29 29 29 30 30 31 31 32 32 31 31 31 32 33 34 34 34 35 35 35 35 35 35 35 36 36 35 35 34 34 33 34 34
24 24 25 26 26 26 26 27 28 29 28 28 29 29 30 31 31 31 31 30 31 31 31 32 33 34 35 35 35 35 34 34 34 34 34 34 34 34 34 33 33 33 33
24 24 25 26 26 26 26 27 28 28 28 27 28 29 29 29 30 31 31 32 32 31 32 32 33 34 35 36 35 34 34 34 33 34 34 33 34 33 33 33 32 33 32
24 25 25 26 27 27 27 28 28 28 28 28 28 28 29 29 29 30 31 31 31 32 32 33 33 33 33 33 34 34 33 34 34 34 33 33 33 32 32 32 32 32 32
24 25 25 26 27 27 27 28 28 28 28 29 29 29 29 29 28 28 29 29 30 30 31 31 31 31 31 32 33 33 33 34 34 33 33 32 31 31 31 31 32 32 32
25 25 25 25 26 26 27 27 27 27 28 28 29 29 29 28 28 28 28 28 28 28 29 30 31 30 30 31 32 32 33 33 32 32 32 31 31 31 31 31 31 31 31
24 24 24 25 26 25 25 25 26 27 26 27 27 28 28 27 27 27 27 27 26 27 28 28 28 29 29 30 30 31 32 33 32 32 31 31 31 30 31 31 31 30 29
24 24 24 25 25 25 24 24 24 25 25 26 26 26 26 25 25 25 25 24 25 25 26 26 27 28 28 29 30 30 31 31 31 31 32 31 31 30 30 31 30 29 29
24 24 24 24 24 24 24 24 25 24 24 24 25 25 24 23 22 23 23 23 24 26 25 26 27 27 28 28 29 29 29 29 30 29 30 30 29 29 29 30 29 29 29
24 24 23 23 24 24 24 24 25 25 24 24 24 22 21 20 20 21 22 23 23 24 25 25 26 26 27 27 27 27 27 27 28 28 28 28 28 28 28 29 29 28 28
23 23 23 23 23 25 25 25 25 25 25 24 23 20 20 20 20 21 21 22 22 23 23 24 24 24 25 24 24 25 25 25 25 25 26 26 27 27 27 28 28 27 27
23 23 23 23 24 26 26 26 25 25 24 23 22 20 20 20 20 21 21 22 23 23 23 24 23 23 23 23 23 23 22 22 23 24 24 24 25 26 27 27 27 27 26
23 23 23 24 25 26 26 25 24 23 22 22 21 20 20 20 20 21 22 22 23 23 23 23 22 22 22 22 22 21 21 20 21 22 22 23 25 25 25 26 25 25 25
23 24 24 24 25 25 24 23 22 21 21 21 21 21 21 20 20 21 21 22 22 23 22 22 22 22 22 21 21 21 21 21 20 20 21 22 23 24 24 25 24 24 24

GEFSMW_500_meanwind_288.txt.gz
Wind_Speed
37 37 37 36 36 37 36 36 37 37 37 37 38 38 39 40 40 41 41 41 40 39 40 41 41 40 40 41 41 40 40 41 40 39 39 40 40 40 40 40 40 40 39
36 36 35 35 35 36 36 37 37 37 38 38 39 39 40 40 41 41 42 43 41 40 41 42 42 41 41 40 40 41 40 41 40 40 40 41 40 40 40 40 40 40 40
34 34 34 34 35 36 36 36 36 37 38 38 38 39 39 40 41 41 41 42 41 42 41 41 42 42 42 41 41 41 41 41 41 41 41 41 41 41 40 41 41 41 41
33 33 34 34 34 34 34 35 36 36 37 37 37 38 38 38 39 40 41 42 42 41 40 41 42 41 41 42 42 42 43 42 41 41 41 41 41 42 42 42 42 42 42
31 32 32 33 33 33 33 34 34 35 35 36 36 35 36 36 37 37 38 39 39 39 39 40 41 41 41 41 42 43 43 42 41 41 40 40 41 42 42 42 42 42 42
30 30 30 31 31 31 31 32 32 32 33 33 34 34 34 35 36 36 37 37 38 38 38 39 39 40 40 40 42 43 43 41 41 41 40 39 39 40 41 41 42 42 42
28 28 28 28 29 29 30 30 30 31 31 31 32 33 34 35 35 36 36 36 36 36 36 38 39 40 39 40 41 41 41 42 42 41 40 40 40 40 41 41 41 41 41
26 27 27 27 28 28 28 29 30 30 30 31 31 31 32 33 33 34 35 36 35 35 35 36 37 38 38 39 38 39 40 41 40 40 40 40 40 40 40 41 41 40 40
26 26 26 27 27 28 29 28 28 28 29 30 30 30 30 30 31 32 34 34 35 35 35 35 36 38 38 38 38 39 40 39 38 38 39 39 39 39 38 38 38 38 38
26 27 27 27 27 27 28 28 28 28 29 29 29 30 30 30 31 31 32 33 34 34 34 35 35 37 37 38 38 38 37 36 36 37 37 37 37 37 37 36 37 37 37
26 27 27 27 27 28 28 28 29 29 30 30 30 30 30 30 30 31 32 33 33 33 34 35 35 36 37 38 38 38 36 35 35 36 36 36 35 35 35 36 36 36 36
26 26 26 26 26 27 27 28 29 29 29 29 30 30 30 30 30 30 31 32 33 33 33 34 35 36 37 36 36 36 36 35 34 34 35 36 36 35 35 35 35 35 34
24 25 25 25 26 26 26 27 27 28 28 28 29 29 29 30 30 30 31 32 32 32 33 34 34 35 35 35 35 35 35 35 34 34 35 36 36 35 35 35 35 34 33
22 23 23 24 25 26 26 25 26 26 27 28 28 28 28 28 28 29 30 31 32 32 32 33 33 33 33 33 33 33 34 34 35 35 34 35 34 35 35 35 34 33 33
21 21 22 23 24 24 24 24 25 26 26 27 27 27 28 29 29 29 30 30 30 31 32 32 32 31 32 31 31 32 33 34 35 35 34 34 34 34 34 33 33 32 32
21 22 22 22 22 23 24 24 25 25 25 26 26 26 27 28 29 29 29 30 30 31 32 32 32 32 31 30 30 31 32 33 33 33 33 33 33 32 32 32 32 32 31
22 22 22 22 22 22 23 23 24 25 25 25 25 25 25 26 27 28 29 30 30 31 32 32 32 31 31 30 31 31 31 32 32 32 32 32 32 32 32 32 31 31 30
22 22 22 22 22 22 22 23 23 24 24 25 24 23 24 25 27 28 28 29 30 30 30 30 31 31 31 30 31 31 30 30 29 29 30 31 32 32 32 31 30 30 30
21 22 22 22 23 23 23 23 24 24 24 24 24 24 24 25 26 27 27 28 28 29 29 29 29 29 28 29 29 29 29 28 28 28 29 30 30 31 30 30 30 31 31
22 21 21 22 23 24 23 23 24 24 24 24 24 24 24 25 26 27 27 27 27 27 28 28 27 27 27 27 27 27 28 28 28 28 28 28 29 29 29 29 30 31 30
22 22 22 22 23 24 24 24 24 24 24 24 24 24 24 25 24 25 25 25 25 26 26 27 26 26 26 26 25 25 27 28 28 27 28 28 28 28 28 29 30 30 30
23 23 22 22 23 23 23 23 23 23 23 24 24 24 25 24 24 24 24 23 23 24 25 25 25 25 25 24 24 24 25 26 26 27 27 27 27 27 28 29 29 29 30
24 23 23 22 22 22 22 23 23 23 23 23 23 23 24 25 24 23 23 22 23 23 24 24 24 24 23 22 23 23 23 24 25 25 25 25 26 27 27 28 28 29 30
24 24 23 23 23 23 23 23 23 23 24 24 24 23 24 24 24 24 23 23 23 23 23 23 22 22 21 21 22 23 23 23 24 24 25 26 25 26 26 27 28 28 29
24 24 23 23 23 23 23 23 24 24 23 23 22 22 23 23 23 23 22 22 22 22 22 22 22 21 21 21 22 22 22 23 23 23 24 25 25 25 25 25 26 27 27
24 23 23 23 23 23 23 23 23 23 23 23 22 22 22 22 21 20 20 20 20 20 20 20 21 21 21 21 22 22 22 22 22 23 23 23 24 24 24 24 24 25 25

GEFSMW_500_meanwind_294.txt.gz
Wind_Speed
40 41 41 41 41 40 40 40 41 41 41 41 42 41 42 41 41 42 42 42 42 43 43 44 44 44 43 43 43 43 42 42 42 42 41 40 39 39 39 39 38 38 38
39 40 40 40 40 40 40 40 40 41 41 41 42 42 41 41 41 42 41 41 41 41 42 43 43 43 44 43 43 43 43 43 42 42 41 41 40 40 40 39 39 38 39
37 38 38 38 38 39 40 40 39 40 41 41 42 42 41 41 41 41 41 40 41 41 41 42 43 43 43 43 43 43 43 42 42 42 42 41 40 40 40 40 40 40 40
35 36 36 36 37 37 38 39 39 39 40 40 41 41 40 40 40 40 40 40 41 41 40 40 41 42 42 42 42 42 41 42 42 42 42 41 41 41 40 39 40 40 41
35 34 34 35 36 36 37 37 37 38 38 39 39 39 39 40 40 40 40 40 40 41 40 40 40 41 42 42 42 41 41 41 40 41 41 41 41 40 40 40 39 39 40
35 35 34 33 34 35 35 36 36 37 37 37 36 37 38 38 39 39 39 39 39 39 39 39 39 40 40 40 40 41 40 40 40 41 40 40 40 39 40 39 39 39 39
33 33 33 33 33 34 34 34 35 35 35 35 35 35 35 36 36 37 37 37 37 37 37 38 39 38 38 38 39 40 40 40 40 40 39 40 39 40 39 39 39 39 38
31 31 32 32 33 33 33 33 34 34 34 34 34 34 34 35 35 35 35 34 34 34 35 35 36 37 37 37 38 39 39 39 39 39 39 40 40 40 39 39 38 37 37
29 30 30 30 31 31 31 31 32 32 33 33 33 33 33 33 33 33 33 32 32 32 32 34 34 34 35 35 36 37 38 37 37 38 39 39 40 40 40 38 38 38 37
28 29 28 29 30 30 30 30 30 30 31 32 32 32 32 32 32 32 31 31 32 32 32 33 34 33 33 34 35 37 37 37 36 37 38 38 39 38 38 38 37 38 37
28 28 28 28 29 29 29 29 29 28 29 30 30 31 31 30 30 30 30 31 32 32 33 33 33 33 33 34 34 36 36 36 37 37 37 37 36 36 36 37 37 36 36
26 26 27 28 28 29 29 29 29 29 29 29 29 29 29 30 29 29 30 31 31 31 31 32 32 31 32 33 33 35 36 36 36 36 35 35 35 35 36 36 36 36 36
25 24 26 26 26 27 27 28 28 29 29 28 28 28 29 29 29 29 29 30 30 30 31 31 31 30 31 31 32 33 34 36 36 35 34 33 34 34 35 35 35 36 36
25 24 24 24 24 25 25 26 26 27 27 27 27 28 28 28 28 28 29 29 29 30 30 30 29 30 30 30 31 32 32 33 33 33 33 33 33 34 34 34 35 35 36
25 24 23 23 24 24 24 25 24 25 25 25 26 27 27 28 29 29 29 29 30 30 30 30 30 30 30 30 31 32 31 31 31 31 32 33 33 34 34 33 34 34 35
23 23 23 23 23 24 24 24 24 25 25 25 26 27 27 28 29 29 29 29 30 30 30 29 29 29 29 29 30 30 29 29 29 30 30 31 32 34 33 33 33 33 33
22 23 23 23 24 24 24 24 25 25 26 26 26 27 27 28 28 29 29 29 29 29 29 28 28 28 29 29 28 29 28 28 28 29 29 31 32 32 32 32 32 32 32
22 23 23 23 24 24 25 25 26 26 26 26 27 27 27 27 27 28 28 28 28 28 28 27 27 27 28 28 28 27 27 27 27 28 29 29 30 30 31 32 32 32 31
24 24 24 24 24 25 26 26 26 26 26 27 27 27 27 27 28 28 28 28 27 27 26 26 26 26 27 27 27 27 27 26 26 27 28 28 29 30 30 30 31 30 30
23 24 24 24 25 25 26 27 26 26 26 27 27 27 27 27 27 27 27 26 26 26 25 25 25 26 25 26 27 27 27 26 26 26 27 28 28 29 29 29 29 29 29
23 23 24 24 25 25 25 26 26 26 27 28 28 27 27 27 27 27 26 25 26 26 25 26 25 25 25 25 26 27 27 27 27 27 28 28 28 28 29 29 29 28 27
24 24 24 25 25 25 25 26 26 27 27 27 27 27 26 26 26 25 25 25 25 26 26 26 25 25 25 25 26 26 27 27 27 27 28 28 28 28 28 28 27 27 27
25 25 26 26 25 25 26 25 25 26 26 26 26 26 26 26 25 24 24 24 25 25 25 24 24 25 25 26 25 26 26 26 26 26 26 27 27 27 26 26 26 26 26
25 25 25 25 25 26 26 26 25 25 25 26 25 26 26 26 25 24 24 24 24 25 24 24 24 24 24 24 24 24 24 24 23 24 24 25 25 25 25 25 26 26 25
25 24 24 24 25 25 25 25 25 25 25 25 25 25 25 24 24 24 24 25 24 24 24 24 24 23 23 23 23 23 23 23 23 23 22 22 23 24 24 25 25 24 23
25 24 23 23 23 23 24 24 24 25 25 25 25 25 25 24 24 23 23 23 24 24 24 24 23 22 22 22 22 22 22 22 22 22 22 22 22 22 22 22 22 21 21